[[{"header":{"parameterUnit":"m.s-1","parameterCategory":1,"la1":30.2991,"la2":30.254,"lo1":-89.0895,"lo2":-89.0444,"dy":0.0017,"dx":0.0017,"nx":28,"ny":28,"refTime":"2023-10-02T09:00:00:Z","depth":0,"parameterNumber":2,"parameterNumberName":"U-component_of_WINDS"},"data":[0,0,0,0,0,0,0,0,0,0,0,0,0,0,0,0,0,0,0,0,0,0,0,0,0,0,0,0,0,0,0,0,0,0,0,0,0,0,0,0,0,0,0,0,0,0,0,0,0,0,0,0,0,0,0,0,0,0,-3.6714,-3.6714,0,-3.6728,-3.6728,-3.6728,-3.6568,-3.6564,-3.6559,-3.6555,-3.6571,-3.6575,-3.658,0,0,0,0,0,0,0,0,0,0,0,0,0,-3.6551,-3.6555,-3.6714,-3.6714,-3.6715,-3.6728,-3.6728,-3.6728,-3.6569,-3.6563,-3.6558,-3.6553,-3.6569,-3.6575,-3.658,0,0,0,0,0,0,0,0,0,0,0,0,0,-3.6599,-3.6556,-3.6714,-3.6636,-3.663,-3.6728,-3.6728,-3.6728,-3.657,-3.6563,-3.6557,-3.6551,-3.6568,-3.6574,-3.6581,-3.6755,0,0,-3.6602,-3.6605,0,0,0,0,0,0,0,0,-3.6597,-3.6605,-3.6648,-3.6642,-3.6635,-3.6639,-3.6676,-3.6737,-3.6572,-3.6593,-3.6555,-3.6547,-3.6599,-3.6603,-3.662,-3.6756,-3.6756,-3.6602,-3.6606,-3.6609,-3.6611,0,0,0,0,0,0,0,-3.6593,-3.6604,-3.672,-3.6649,-3.6641,-3.6601,-3.6601,-3.6687,-3.6633,-3.659,-3.6579,-3.6582,-3.6594,-3.6614,-3.6619,-3.6756,-3.6602,-3.6608,-3.6612,-3.6615,-3.7036,-3.7042,0,0,0,0,0,0,-3.66,-3.6602,-3.6719,-3.672,-3.6599,-3.661,-3.6609,-3.6645,-3.6631,-3.6623,-3.6588,-3.6575,-3.6606,-3.6612,-3.6619,-3.6822,-3.6609,-3.6616,-3.6619,-3.7029,-3.7037,-3.7045,0,0,0,0,0,0,-3.6597,-3.6612,-3.6719,-3.6658,-3.6668,-3.6619,-3.6661,-3.6648,-3.6668,-3.663,-3.6619,-3.6618,-3.6601,-3.661,-3.6722,-3.682,-3.6619,-3.6625,-3.702,-3.7031,-3.7041,-3.7229,0,0,0,0,0,0,-3.6593,-3.6612,-3.6678,-3.6661,-3.6672,-3.6822,-3.6667,-3.6653,-3.668,-3.6663,-3.6655,-3.6648,-3.6596,-3.6713,-3.6729,-3.6826,-3.663,-3.7011,-3.7025,-3.7038,-3.7214,-3.7245,-3.7272,0,0,0,0,0,-3.6588,-3.673,-3.6682,-3.6697,-3.6753,-3.6828,-3.6834,-3.6772,-3.6688,-3.6754,-3.6729,-3.6648,-3.6807,-3.6726,-3.6743,-3.6843,-3.7005,-3.7021,-3.7037,-3.7201,-3.7239,-3.7271,0,0,0,0,0,0,-3.6761,-3.6727,-3.6672,-3.6813,-3.6825,-3.68,-3.6881,-3.6814,-3.6849,-3.6832,-3.6753,-3.6753,-3.6879,-3.6872,-3.6782,-3.7011,-3.6891,-3.6911,-3.7011,-3.7046,-3.7075,-3.7074,-3.6636,0,0,0,0,0,-3.6815,-3.6878,-3.6845,-3.6973,-3.6981,-3.6931,-3.6961,-3.6912,-3.692,-3.6924,-3.6908,-3.692,-3.6973,-3.7009,-3.7055,-3.7212,-3.7209,-3.729,-3.7319,-3.7342,-3.7361,-3.7444,-3.748,-3.7097,-3.7097,-3.7097,0,0,-3.6928,-3.6917,-3.6962,-3.7007,-3.701,-3.7077,-3.6936,-3.7013,-3.7062,-3.6936,-3.7041,-3.703,-3.7038,-3.7174,-3.7233,-3.7173,-3.7466,-3.7363,-3.7382,-3.7387,-3.7464,-3.75,-3.7533,-3.7108,-3.7106,-3.7105,0,0,-3.7168,-3.7167,-3.7272,-3.7278,-3.7284,-3.725,-3.7276,-3.7262,-3.725,-3.7354,-3.7261,-3.7319,-3.7411,-3.7421,-3.7438,-3.7683,-3.761,-3.77,-3.7851,-3.7932,-3.7963,-3.7989,-3.8077,-3.8109,-3.7719,-3.7719,-3.7719,0,-3.7308,-3.7406,-3.7336,-3.7419,-3.7442,-3.7331,-3.7438,-3.7447,-3.7469,-3.7487,-3.7418,-3.7532,-3.753,-3.7666,-3.7726,-3.7744,-3.7771,-3.7701,-3.7964,-3.7989,-3.8013,-3.8096,-3.8129,-3.773,-3.7729,-3.7728,-3.7727,0,-3.7577,-3.7647,-3.7732,-3.7755,-3.7787,-3.7882,-3.7827,-3.7868,-3.7817,-3.779,-3.7898,-3.7891,-3.7934,-3.7963,-3.7914,-3.8094,-3.8056,-3.7977,-3.7855,-3.8062,-3.8138,-3.8169,-3.7746,-3.7742,-3.7739,-3.7736,0,0,-3.7927,-3.791,-3.7942,-3.7951,-3.795,-3.8003,-3.8093,-3.8135,-3.8172,-3.8191,-3.8265,-3.8346,-3.8273,-3.8293,-3.8243,-3.8315,-3.851,-3.8227,-3.8226,-3.8281,-3.8709,-3.8768,-3.8806,-3.8462,-3.8467,-3.8472,-3.8708,0,-3.8161,-3.8313,-3.8253,-3.8411,-3.8474,-3.837,-3.8448,-3.8457,-3.8434,-3.8485,-3.846,-3.8519,-3.8418,-3.8429,-3.8496,-3.8473,-3.8595,-3.8455,-3.8531,-3.8534,-3.8532,-3.8846,-3.8909,-3.9132,-3.8738,-3.8743,-3.8746,0,-3.8454,-3.8484,-3.8649,-3.8637,-3.8661,-3.8733,-3.8766,-3.8816,-3.8824,-3.8802,-3.8825,-3.876,-3.8848,-3.8727,-3.8849,-3.8754,-3.8782,-3.8775,-3.8783,-3.8787,-3.8653,-3.886,-3.9202,-3.9236,-3.8793,-3.8789,-3.8786,0,-3.8693,-3.8775,-3.8883,-3.8895,-3.8883,-3.8936,-3.8934,-3.8935,-3.8964,-3.8994,-3.9012,-3.9052,-3.9074,-3.9107,-3.9055,-3.8972,-3.9185,-3.9059,-3.917,-3.9172,-3.9219,-3.9217,-3.9571,-3.9238,-3.9237,-3.9236,-3.9236,0,-3.896,-3.9065,-3.899,-3.9058,-3.9172,-3.9102,-3.9218,-3.9204,-3.9206,-3.9269,-3.9181,-3.9242,-3.917,-3.9224,-3.9184,-3.9291,-3.9302,-3.9288,-3.9276,-3.9296,-3.9298,-3.9313,-3.9296,-3.9245,-3.9243,-3.9242,-3.924,0,-3.9246,-3.92,-3.9312,-3.9292,-3.9289,-3.9375,-3.9358,-3.942,-3.9391,-3.9472,-3.9487,-3.9443,-3.9503,-3.9454,-3.9512,-3.9485,-3.9627,-3.9593,-3.9625,-3.9616,-3.9729,-3.972,-4.0106,-4.0153,-3.9789,-3.9793,-3.9796,0,-3.942,-3.9498,-3.9486,-3.9522,-3.9525,-3.9584,-3.9613,-3.9548,-3.9582,-3.9597,-3.9657,-3.9709,-3.9747,-3.9848,-3.9822,-3.9866,-3.9833,-3.9965,-3.9839,-3.9857,-3.9835,-3.9831,-3.9839,-3.9991,-3.9995,-3.9999,-4.0001,0,-3.9734,-3.9707,-3.9752,-3.979,-3.9827,-3.9854,-3.9874,-3.9908,-3.9841,-3.9885,-3.9944,-3.9974,-4.0034,-4.0087,-4.0123,-4.0121,-4.0052,-4.0041,-4.0069,-4.0091,-4.0106,-4.01,-3.9695,-4.0033,-4.003,-4.0027,-4.0026,-4.0024,-3.9969,-4.0033,-4.0035,-4.0089,-4.0096,-4.0117,-4.0174,-4.0153,-4.0201,-4.0244,-4.0203,-4.0276,-4.0281,-4.0322,-4.0329,-4.0386,-4.0331,-4.0372,-4.0382,-4.0393,-4.041,-4.0097,-4.0392,-4.0391,-4.039,-4.0389,-4.0388,0,-4.0278,-4.0274,-4.0324,-4.0354,-4.0396,-4.0326,-4.0344,-4.0385,-4.045,-4.0461,-4.05,-4.057,-4.0621,-4.0599,-4.0644,-4.0694,-4.0663,-4.0708,-4.0704,-4.0705,-4.0456,-4.0427,-4.0732,-4.0732,-4.0732,-4.0732,-4.0732,-4.0732,-4.0444,-4.0549,-4.0523,-4.0632,-4.0627,-4.0697,-4.0714,-4.0733,-4.0742,-4.0823,-4.0865,-4.085,-4.0848,-4.0893,-4.0937,-4.0929,-4.0951,-4.1008,-4.0989,-4.0756,-4.0722,-4.069,-4.0663,-4.1013,-4.1013,-4.1233,-4.1235,-4.1236]},{"header":{"parameterUnit":"m.s-1","parameterCategory":1,"la1":30.2991,"la2":30.254,"lo1":-89.0895,"lo2":-89.0444,"dy":0.0017,"dx":0.0017,"nx":28,"ny":28,"refTime":"2023-10-02T09:00:00:Z","depth":0,"parameterNumber":3,"parameterNumberName":"V-component_of_WINDS"},"data":[0,0,0,0,0,0,0,0,0,0,0,0,0,0,0,0,0,0,0,0,0,0,0,0,0,0,0,0,0,0,0,0,0,0,0,0,0,0,0,0,0,0,0,0,0,0,0,0,0,0,0,0,0,0,0,0,0,0,0.2081,0.208,0,0.2021,0.2021,0.202,0.1966,0.1966,0.1965,0.1965,0.1902,0.1901,0.19,0,0,0,0,0,0,0,0,0,0,0,0,0,0.2149,0.2148,0.2081,0.208,0.208,0.2022,0.2021,0.202,0.1967,0.1966,0.1965,0.1964,0.1902,0.1901,0.19,0,0,0,0,0,0,0,0,0,0,0,0,0,0.2108,0.2148,0.2081,0.2046,0.2042,0.2022,0.2021,0.202,0.1967,0.1966,0.1965,0.1964,0.1903,0.1901,0.1899,0.1908,0,0,0.1894,0.1894,0,0,0,0,0,0,0,0,0.211,0.2105,0.2052,0.2048,0.2044,0.2,0.2022,0.1982,0.1967,0.1995,0.1965,0.1963,0.1935,0.1931,0.1922,0.1905,0.1903,0.1894,0.1893,0.1893,0.1892,0,0,0,0,0,0,0,0.2113,0.2107,0.2057,0.2051,0.2047,0.2033,0.2026,0.2014,0.1971,0.1993,0.1989,0.1983,0.1933,0.1923,0.192,0.1902,0.1894,0.1893,0.1892,0.1891,0.1891,0.1892,0,0,0,0,0,0,0.2121,0.211,0.2059,0.2056,0.2076,0.2033,0.2025,0.2015,0.1971,0.1964,0.1983,0.198,0.1927,0.1922,0.1917,0.1925,0.1893,0.1891,0.189,0.189,0.1891,0.1892,0,0,0,0,0,0,0.2123,0.2117,0.2062,0.2082,0.2074,0.2033,0.2022,0.2015,0.2005,0.1964,0.1956,0.1981,0.1926,0.192,0.1911,0.1922,0.189,0.1889,0.1889,0.1891,0.1892,0.1941,0,0,0,0,0,0,0.2125,0.2118,0.2121,0.2082,0.2073,0.2057,0.2023,0.2014,0.2003,0.1998,0.196,0.1953,0.1924,0.1914,0.191,0.192,0.1888,0.1888,0.189,0.1891,0.1938,0.1944,0.1949,0,0,0,0,0,0.2128,0.2136,0.2121,0.2115,0.2075,0.2057,0.2052,0.2019,0.2004,0.2006,0.198,0.1954,0.1922,0.1914,0.1908,0.1918,0.1887,0.1889,0.1891,0.1936,0.1943,0.1949,0,0,0,0,0,0,0.2176,0.2131,0.2113,0.211,0.2088,0.2048,0.205,0.2028,0.2009,0.2006,0.1966,0.1958,0.1954,0.1935,0.1926,0.1925,0.1901,0.1902,0.1937,0.1943,0.1949,0.1953,0.1886,0,0,0,0,0,0.2187,0.2176,0.2137,0.2137,0.2128,0.2091,0.2082,0.2059,0.2035,0.2025,0.1998,0.1976,0.196,0.1951,0.1935,0.1936,0.1927,0.194,0.1946,0.195,0.1951,0.1952,0.1957,0.19,0.19,0.19,0,0,0.2207,0.2181,0.2177,0.2147,0.2127,0.2117,0.2084,0.2074,0.2066,0.2023,0.2014,0.1994,0.1966,0.1963,0.196,0.1947,0.1966,0.1953,0.1957,0.1955,0.1954,0.196,0.1965,0.1901,0.1901,0.1901,0,0,0.224,0.222,0.2218,0.22,0.2172,0.2148,0.2148,0.2112,0.2098,0.2088,0.2056,0.2047,0.2021,0.2003,0.199,0.202,0.1995,0.2016,0.2043,0.2044,0.2048,0.2052,0.2062,0.2067,0.2017,0.2017,0.2017,0,0.2269,0.2253,0.222,0.2213,0.2201,0.2164,0.2163,0.2146,0.2114,0.2107,0.2093,0.2062,0.204,0.2032,0.204,0.2031,0.203,0.2019,0.205,0.2054,0.2057,0.2066,0.207,0.202,0.202,0.2019,0.2019,0,0.2291,0.2281,0.2283,0.2254,0.2242,0.2238,0.2205,0.2197,0.2177,0.2155,0.2146,0.2119,0.2098,0.2095,0.2073,0.2085,0.2077,0.2058,0.2033,0.2066,0.2074,0.2077,0.2024,0.2023,0.2022,0.2021,0,0,0.2349,0.2305,0.2306,0.2293,0.226,0.2251,0.2247,0.2226,0.2221,0.2201,0.2195,0.2176,0.2158,0.2144,0.2121,0.2122,0.2148,0.2102,0.2101,0.2111,0.2159,0.2173,0.2178,0.2132,0.2133,0.2133,0.2161,0,0.2376,0.2365,0.2337,0.2334,0.2325,0.2291,0.2287,0.2266,0.2246,0.2235,0.2213,0.22,0.2178,0.2169,0.2169,0.2145,0.2156,0.2142,0.2126,0.2126,0.2133,0.2182,0.2196,0.2224,0.2164,0.2164,0.2165,0,0.2405,0.2389,0.2386,0.2355,0.235,0.2347,0.2327,0.2317,0.2294,0.228,0.2266,0.2241,0.2234,0.2213,0.2203,0.2194,0.2186,0.2174,0.2174,0.217,0.2146,0.2178,0.2231,0.2235,0.217,0.2169,0.2169,0,0.2448,0.2425,0.242,0.2411,0.2375,0.2374,0.2359,0.2335,0.2325,0.2308,0.2302,0.2284,0.2274,0.2261,0.2232,0.2219,0.2226,0.2202,0.2213,0.2214,0.2215,0.2215,0.2266,0.2212,0.2212,0.2212,0.2212,0,0.248,0.2479,0.2439,0.2436,0.2435,0.2404,0.2403,0.2385,0.2365,0.2358,0.2328,0.2322,0.2285,0.2276,0.2253,0.2249,0.2245,0.2233,0.2226,0.2235,0.2236,0.2228,0.2225,0.2213,0.2213,0.2212,0.2212,0,0.2526,0.25,0.2493,0.2461,0.2453,0.2453,0.2426,0.2422,0.2402,0.2394,0.239,0.2358,0.2345,0.2315,0.2294,0.2279,0.228,0.227,0.2288,0.2284,0.2297,0.2296,0.2344,0.2349,0.2293,0.2293,0.2294,0,0.2548,0.2547,0.2516,0.251,0.2496,0.2487,0.2477,0.2447,0.2438,0.2414,0.2413,0.2398,0.2384,0.2366,0.234,0.2324,0.2312,0.233,0.2309,0.2318,0.2312,0.2312,0.2312,0.2334,0.2335,0.2336,0.2336,0,0.2589,0.2576,0.2564,0.2549,0.2539,0.2524,0.2508,0.2505,0.2471,0.2463,0.245,0.244,0.242,0.2405,0.2386,0.237,0.2348,0.2344,0.2345,0.2353,0.2363,0.2357,0.23,0.2342,0.2341,0.2341,0.2341,0.234,0.2623,0.2621,0.2599,0.2587,0.2573,0.2559,0.2555,0.2535,0.2524,0.2505,0.2488,0.2478,0.2456,0.2428,0.2415,0.2406,0.2394,0.2396,0.2397,0.2398,0.2401,0.2366,0.2402,0.2402,0.2402,0.2402,0.2401,0,0.2662,0.2647,0.2637,0.2616,0.2607,0.2589,0.2571,0.2564,0.2556,0.2538,0.2526,0.2512,0.2499,0.2473,0.2458,0.2455,0.2445,0.2452,0.2451,0.2448,0.2413,0.2413,0.2461,0.2461,0.2461,0.2461,0.2461,0.2461,0.2681,0.2677,0.2663,0.2652,0.2637,0.2626,0.2618,0.2606,0.2592,0.2578,0.2567,0.2551,0.2531,0.2514,0.2501,0.2494,0.2489,0.25,0.2489,0.2456,0.2451,0.2445,0.2445,0.2499,0.25,0.2525,0.2526,0.2526]}]]